| time (UTC) | temp C | wind direction | speed KPH | gust KPH | rain 1hr cm | rain 24hr cm | rain mn cm | humidity % | barometer mb |
| 20260505102218 | 14 | 158 | 6.4 | 8.0 | 0.05 | 0.08 | 0.08 | 91 | 1008.1 |
| 20260505101717 | 14 | 147 | 4.8 | 8.0 | 0.05 | 0.08 | 0.08 | 90 | 1008.1 |
| 20260505101212 | 14 | 133 | 4.8 | 8.0 | 0.05 | 0.08 | 0.08 | 89 | 1008.3 |
| 20260505100709 | 14 | 145 | 9.7 | 9.7 | 0.13 | 0.08 | 0.08 | 88 | 1008.4 |
| 20260505100206 | 15 | 106 | 3.2 | 8.0 | 0.23 | 0.05 | 0.05 | 85 | 1008.2 |
| 20260505095701 | 15 | 149 | 6.4 | 8.0 | 0.23 | 0.05 | 0.05 | 82 | 1008.2 |
| 20260505095200 | 16 | 163 | 4.8 | 6.4 | 0.05 | 0.00 | 0.00 | 78 | 1008.3 |
| 20260505094655 | 17 | 199 | 8.0 | 14.5 | 0.00 | 0.00 | 0.00 | 70 | 1008.3 |
| 20260505094151 | 17 | 183 | 8.0 | 11.3 | 0.00 | 0.00 | 0.00 | 63 | 1008.1 |
| 20260505093648 | 17 | 130 | 6.4 | 8.0 | 0.00 | 0.00 | 0.00 | 62 | 1007.8 |
| 20260505093145 | 17 | 180 | 6.4 | 9.7 | 0.00 | 0.00 | 0.00 | 61 | 1007.6 |
| 20260505092642 | 17 | 180 | 6.4 | 8.0 | 0.00 | 0.00 | 0.00 | 61 | 1007.4 |
| 20260505092141 | 17 | 179 | 6.4 | 8.0 | 0.00 | 0.00 | 0.00 | 60 | 1007.3 |
| 20260505091638 | 17 | 177 | 8.0 | 12.9 | 0.00 | 0.00 | 0.00 | 60 | 1007.1 |
| 20260505091135 | 17 | 175 | 9.7 | 11.3 | 0.00 | 0.00 | 0.00 | 60 | 1006.6 |
| 20260505090633 | 17 | 179 | 9.7 | 9.7 | 0.00 | 0.00 | 0.00 | 60 | 1006.7 |
| 20260505090131 | 17 | 177 | 8.0 | 9.7 | 0.00 | 0.00 | 0.00 | 60 | 1006.8 |
| 20260505085628 | 17 | 170 | 8.0 | 16.1 | 0.00 | 0.00 | 0.00 | 59 | 1006.6 |
| 20260505085126 | 17 | 166 | 8.0 | 9.7 | 0.00 | 0.00 | 0.00 | 59 | 1006.6 |
| 20260505084624 | 17 | 176 | 9.7 | 11.3 | 0.00 | 0.00 | 0.00 | 59 | 1006.2 |
| 20260505084122 | 17 | 172 | 8.0 | 9.7 | 0.00 | 0.00 | 0.00 | 59 | 1006.3 |
| 20260505083619 | 17 | 165 | 6.4 | 11.3 | 0.00 | 0.00 | 0.00 | 58 | 1006.2 |
| 20260505083115 | 17 | 177 | 9.7 | 12.9 | 0.00 | 0.00 | 0.00 | 59 | 1006.1 |
| 20260505082611 | 17 | 177 | 9.7 | 11.3 | 0.00 | 0.00 | 0.00 | 59 | 1006.0 |
| 20260505082109 | 17 | 181 | 11.3 | 14.5 | 0.00 | 0.00 | 0.00 | 59 | 1005.8 |
| 20260505081604 | 17 | 165 | 9.7 | 14.5 | 0.00 | 0.00 | 0.00 | 58 | 1005.6 |
| 20260505081102 | 18 | 176 | 8.0 | 14.5 | 0.00 | 0.00 | 0.00 | 58 | 1005.5 |
| 20260505080558 | 17 | 176 | 9.7 | 12.9 | 0.00 | 0.00 | 0.00 | 58 | 1005.5 |
| 20260505080055 | 18 | 177 | 9.7 | 12.9 | 0.00 | 0.00 | 0.00 | 58 | 1005.4 |
| 20260505075550 | 18 | 181 | 12.9 | 14.5 | 0.00 | 0.00 | 0.00 | 58 | 1005.6 |
| 20260505075048 | 18 | 187 | 11.3 | 14.5 | 0.00 | 0.00 | 0.00 | 57 | 1005.6 |
| 20260505074544 | 18 | 177 | 9.7 | 14.5 | 0.00 | 0.00 | 0.00 | 57 | 1005.6 |
| 20260505074041 | 18 | 186 | 9.7 | 12.9 | 0.00 | 0.00 | 0.00 | 57 | 1005.7 |
| 20260505073538 | 18 | 173 | 9.7 | 11.3 | 0.00 | 0.00 | 0.00 | 57 | 1005.4 |
| 20260505073037 | 18 | 177 | 9.7 | 12.9 | 0.00 | 0.00 | 0.00 | 57 | 1005.5 |
| 20260505072527 | 18 | 193 | 11.3 | 14.5 | 0.00 | 0.00 | 0.00 | 57 | 1005.5 |
| 20260505072023 | 18 | 184 | 11.3 | 14.5 | 0.00 | 0.00 | 0.00 | 57 | 1005.4 |
| 20260505071519 | 18 | 181 | 11.3 | 12.9 | 0.00 | 0.00 | 0.00 | 57 | 1005.2 |
| 20260505071018 | 18 | 177 | 9.7 | 14.5 | 0.00 | 0.00 | 0.00 | 57 | 1005.1 |
| 20260505070515 | 18 | 178 | 9.7 | 11.3 | 0.00 | 0.00 | 0.00 | 57 | 1005.2 |
| 20260505070010 | 18 | 175 | 9.7 | 11.3 | 0.00 | 0.00 | 0.00 | 56 | 1005.6 |
| 20260505065507 | 18 | 184 | 9.7 | 12.9 | 0.00 | 0.00 | 0.00 | 56 | 1005.8 |
| 20260505065003 | 18 | 180 | 11.3 | 14.5 | 0.00 | 0.00 | 0.00 | 56 | 1005.8 |
| 20260505064500 | 18 | 181 | 11.3 | 14.5 | 0.00 | 0.00 | 0.00 | 55 | 1005.5 |
| 20260505063959 | 18 | 180 | 11.3 | 12.9 | 0.00 | 0.00 | 0.00 | 56 | 1005.6 |
| 20260505063455 | 18 | 180 | 9.7 | 16.1 | 0.00 | 0.00 | 0.00 | 56 | 1005.5 |
| 20260505062951 | 18 | 172 | 12.9 | 14.5 | 0.00 | 0.00 | 0.00 | 55 | 1005.8 |
| 20260505062448 | 18 | 163 | 11.3 | 14.5 | 0.00 | 0.00 | 0.00 | 55 | 1005.6 |
| 20260505061945 | 18 | 182 | 9.7 | 20.9 | 0.00 | 0.00 | 0.00 | 55 | 1005.6 |
| 20260505061443 | 18 | 182 | 11.3 | 14.5 | 0.00 | 0.00 | 0.00 | 55 | 1005.6 |
| 20260505060940 | 18 | 189 | 12.9 | 14.5 | 0.00 | 0.00 | 0.00 | 55 | 1005.4 |
| 20260505060437 | 18 | 186 | 11.3 | 14.5 | 0.00 | 0.00 | 0.00 | 55 | 1005.4 |
| 20260505055934 | 18 | 183 | 12.9 | 12.9 | 0.00 | 0.00 | 0.00 | 54 | 1005.2 |
| 20260505055430 | 18 | 180 | 9.7 | 12.9 | 0.00 | 0.00 | 0.00 | 54 | 1005.2 |
| 20260505054927 | 18 | 180 | 11.3 | 12.9 | 0.00 | 0.00 | 0.00 | 54 | 1005.4 |
| 20260505054424 | 18 | 175 | 11.3 | 12.9 | 0.00 | 0.00 | 0.00 | 54 | 1005.4 |
| 20260505053922 | 18 | 180 | 9.7 | 11.3 | 0.00 | 0.00 | 0.00 | 54 | 1004.8 |
| 20260505053419 | 18 | 174 | 9.7 | 12.9 | 0.00 | 0.00 | 0.00 | 54 | 1005.1 |
| 20260505052916 | 18 | 174 | 11.3 | 12.9 | 0.00 | 0.00 | 0.00 | 54 | 1005.0 |
| 20260505052413 | 18 | 179 | 9.7 | 11.3 | 0.00 | 0.00 | 0.00 | 55 | 1004.9 |
| 20260505051910 | 18 | 177 | 9.7 | 11.3 | 0.00 | 0.00 | 0.00 | 55 | 1004.9 |
| 20260505051407 | 18 | 179 | 9.7 | 12.9 | 0.00 | 0.00 | 0.00 | 55 | 1005.0 |
| 20260505050905 | 18 | 181 | 11.3 | 12.9 | 0.00 | 0.00 | 0.00 | 55 | 1005.2 |
| 20260505050403 | 19 | 180 | 11.3 | 14.5 | 0.00 | 0.00 | 0.00 | 54 | 1005.2 |
| 20260505041330 | 19 | 177 | 9.7 | 12.9 | 0.00 | 0.00 | 0.00 | 55 | 1005.7 |
| 20260505040827 | 19 | 184 | 11.3 | 14.5 | 0.00 | 0.00 | 0.00 | 54 | 1005.6 |
| 20260505040325 | 19 | 181 | 8.0 | 11.3 | 0.00 | 0.00 | 0.00 | 55 | 1005.6 |
| 20260505035822 | 20 | 181 | 8.0 | 12.9 | 0.00 | 0.00 | 0.00 | 54 | 1005.8 |
| 20260505035317 | 20 | 180 | 9.7 | 12.9 | 0.00 | 0.00 | 0.00 | 54 | 1005.8 |
| 20260505034815 | 20 | 183 | 11.3 | 16.1 | 0.00 | 0.00 | 0.00 | 54 | 1005.8 |
| 20260505034311 | 20 | 181 | 9.7 | 14.5 | 0.00 | 0.00 | 0.00 | 54 | 1005.9 |
| 20260505033809 | 20 | 180 | 11.3 | 12.9 | 0.00 | 0.00 | 0.00 | 54 | 1005.8 |
| 20260505033305 | 19 | 179 | 8.0 | 11.3 | 0.00 | 0.00 | 0.00 | 55 | 1005.9 |
| 20260505032804 | 20 | 174 | 8.0 | 11.3 | 0.00 | 0.00 | 0.00 | 54 | 1005.7 |
| 20260505032259 | 20 | 176 | 8.0 | 12.9 | 0.00 | 0.00 | 0.00 | 54 | 1005.6 |
| 20260505031756 | 20 | 175 | 8.0 | 9.7 | 0.00 | 0.00 | 0.00 | 55 | 1005.6 |
| 20260505031252 | 20 | 180 | 9.7 | 11.3 | 0.00 | 0.00 | 0.00 | 54 | 1005.7 |
| 20260505030749 | 20 | 182 | 11.3 | 12.9 | 0.00 | 0.00 | 0.00 | 55 | 1005.6 |
| 20260505030246 | 20 | 179 | 8.0 | 9.7 | 0.00 | 0.00 | 0.00 | 54 | 1005.5 |
| 20260505025741 | 20 | 176 | 8.0 | 11.3 | 0.00 | 0.00 | 0.00 | 54 | 1005.6 |
| 20260505025240 | 20 | 180 | 11.3 | 11.3 | 0.00 | 0.00 | 0.00 | 55 | 1005.5 |
| 20260505024738 | 20 | 174 | 8.0 | 11.3 | 0.00 | 0.00 | 0.00 | 54 | 1005.1 |
| 20260505024234 | 20 | 180 | 9.7 | 11.3 | 0.00 | 0.00 | 0.00 | 54 | 1005.4 |
| 20260505023732 | 20 | 181 | 9.7 | 11.3 | 0.00 | 0.00 | 0.00 | 54 | 1005.0 |
| 20260505023229 | 20 | 177 | 8.0 | 11.3 | 0.00 | 0.00 | 0.00 | 54 | 1005.2 |
| 20260505022726 | 20 | 179 | 9.7 | 11.3 | 0.00 | 0.00 | 0.00 | 54 | 1005.2 |
| 20260505022223 | 20 | 173 | 8.0 | 11.3 | 0.00 | 0.00 | 0.00 | 54 | 1004.6 |
| 20260505021720 | 20 | 180 | 9.7 | 14.5 | 0.00 | 0.00 | 0.00 | 54 | 1004.6 |
| 20260505021217 | 20 | 180 | 8.0 | 12.9 | 0.00 | 0.00 | 0.00 | 53 | 1004.6 |
| 20260505020712 | 20 | 182 | 8.0 | 11.3 | 0.00 | 0.00 | 0.00 | 54 | 1004.8 |
| 20260505020208 | 20 | 160 | 9.7 | 11.3 | 0.00 | 0.00 | 0.00 | 54 | 1004.5 |
| 20260505015706 | 20 | 178 | 8.0 | 11.3 | 0.00 | 0.00 | 0.00 | 53 | 1004.6 |
| 20260505015202 | 20 | 180 | 11.3 | 14.5 | 0.00 | 0.00 | 0.00 | 53 | 1004.3 |
| 20260505014659 | 20 | 181 | 11.3 | 11.3 | 0.00 | 0.00 | 0.00 | 53 | 1004.2 |
| 20260505014156 | 20 | 167 | 9.7 | 12.9 | 0.00 | 0.00 | 0.00 | 53 | 1004.0 |
| 20260505013654 | 20 | 175 | 8.0 | 12.9 | 0.00 | 0.00 | 0.00 | 53 | 1004.2 |
| 20260505013150 | 20 | 180 | 9.7 | 11.3 | 0.00 | 0.00 | 0.00 | 53 | 1004.3 |
| 20260505012649 | 21 | 180 | 8.0 | 11.3 | 0.00 | 0.00 | 0.00 | 52 | 1004.2 |
| 20260505012145 | 21 | 179 | 9.7 | 12.9 | 0.00 | 0.00 | 0.00 | 52 | 1004.1 |
| 20260505011641 | 21 | 182 | 11.3 | 12.9 | 0.00 | 0.00 | 0.00 | 52 | 1004.3 |
| 20260505011139 | 21 | 170 | 9.7 | 12.9 | 0.00 | 0.00 | 0.00 | 51 | 1004.1 |
| 20260505010639 | 21 | 172 | 11.3 | 11.3 | 0.00 | 0.00 | 0.00 | 52 | 1004.5 |
| 20260505010136 | 21 | 169 | 9.7 | 11.3 | 0.00 | 0.00 | 0.00 | 52 | 1004.1 |
| 20260505005632 | 21 | 180 | 9.7 | 11.3 | 0.00 | 0.00 | 0.00 | 52 | 1004.1 |
| 20260505005129 | 21 | 180 | 9.7 | 9.7 | 0.00 | 0.00 | 0.00 | 52 | 1003.9 |
| 20260505004626 | 21 | 180 | 9.7 | 11.3 | 0.00 | 0.00 | 0.00 | 51 | 1004.0 |
| 20260505004123 | 21 | 180 | 9.7 | 11.3 | 0.00 | 0.00 | 0.00 | 51 | 1003.9 |
| 20260505003620 | 21 | 178 | 9.7 | 11.3 | 0.00 | 0.00 | 0.00 | 51 | 1003.9 |
| 20260505003118 | 21 | 181 | 11.3 | 12.9 | 0.00 | 0.00 | 0.00 | 51 | 1004.0 |
| 20260505002614 | 21 | 180 | 9.7 | 11.3 | 0.00 | 0.00 | 0.00 | 51 | 1004.1 |
| 20260505002112 | 22 | 182 | 11.3 | 11.3 | 0.00 | 0.00 | 0.00 | 51 | 1004.1 |
| 20260505001609 | 22 | 178 | 8.0 | 12.9 | 0.00 | 0.00 | 0.00 | 50 | 1004.2 |
| 20260505001107 | 22 | 181 | 11.3 | 11.3 | 0.00 | 0.00 | 0.00 | 50 | 1004.2 |
| 20260505000603 | 22 | 182 | 11.3 | 11.3 | 0.00 | 0.00 | 0.00 | 50 | 1004.3 |
| 20260504235557 | 22 | 178 | 9.7 | 12.9 | 0.00 | 0.00 | 0.00 | 49 | 1004.4 |
| 20260504235049 | 22 | 180 | 12.9 | 12.9 | 0.00 | 0.00 | 0.00 | 48 | 1004.7 |
| 20260504234546 | 22 | 175 | 9.7 | 12.9 | 0.00 | 0.00 | 0.00 | 48 | 1004.8 |
| 20260504234043 | 22 | 179 | 9.7 | 11.3 | 0.00 | 0.00 | 0.00 | 47 | 1004.6 |
| 20260504233538 | 23 | 184 | 11.3 | 12.9 | 0.00 | 0.00 | 0.00 | 46 | 1004.7 |
| 20260504233035 | 23 | 179 | 8.0 | 12.9 | 0.00 | 0.00 | 0.00 | 46 | 1004.7 |
| 20260504232532 | 23 | 180 | 8.0 | 12.9 | 0.00 | 0.00 | 0.00 | 46 | 1004.6 |
| 20260504232030 | 23 | 202 | 14.5 | 14.5 | 0.00 | 0.00 | 0.00 | 45 | 1004.9 |
| 20260504231526 | 23 | 174 | 8.0 | 11.3 | 0.00 | 0.00 | 0.00 | 45 | 1004.9 |
| 20260504231022 | 23 | 183 | 9.7 | 12.9 | 0.00 | 0.00 | 0.00 | 45 | 1005.2 |
| 20260504230519 | 23 | 194 | 12.9 | 12.9 | 0.00 | 0.00 | 0.00 | 44 | 1004.9 |
| 20260504230018 | 23 | 184 | 11.3 | 14.5 | 0.00 | 0.00 | 0.00 | 44 | 1004.9 |
| 20260504225515 | 23 | 184 | 9.7 | 14.5 | 0.00 | 0.00 | 0.00 | 44 | 1005.2 |
| 20260504225012 | 23 | 177 | 8.0 | 14.5 | 0.00 | 0.00 | 0.00 | 43 | 1005.0 |
| 20260504224508 | 23 | 187 | 9.7 | 17.7 | 0.00 | 0.00 | 0.00 | 43 | 1005.2 |
| 20260504224005 | 23 | 189 | 9.7 | 16.1 | 0.00 | 0.00 | 0.00 | 43 | 1005.0 |
| 20260504223502 | 23 | 182 | 8.0 | 12.9 | 0.00 | 0.00 | 0.00 | 43 | 1005.4 |
| 20260504222957 | 23 | 180 | 11.3 | 16.1 | 0.00 | 0.00 | 0.00 | 43 | 1005.5 |
| 20260504222455 | 23 | 186 | 12.9 | 19.3 | 0.00 | 0.00 | 0.00 | 43 | 1005.2 |
| 20260504221952 | 23 | 194 | 17.7 | 19.3 | 0.00 | 0.00 | 0.00 | 42 | 1005.4 |
| 20260504221450 | 23 | 191 | 9.7 | 14.5 | 0.00 | 0.00 | 0.00 | 43 | 1005.4 |
| 20260504220946 | 24 | 191 | 9.7 | 19.3 | 0.00 | 0.00 | 0.00 | 43 | 1005.1 |
| 20260504220443 | 24 | 187 | 11.3 | 19.3 | 0.00 | 0.00 | 0.00 | 41 | 1005.4 |
| 20260504215940 | 23 | 188 | 11.3 | 20.9 | 0.00 | 0.00 | 0.00 | 42 | 1005.6 |
| 20260504215436 | 23 | 185 | 14.5 | 19.3 | 0.00 | 0.00 | 0.00 | 42 | 1005.5 |
| 20260504214933 | 24 | 185 | 11.3 | 16.1 | 0.00 | 0.00 | 0.00 | 41 | 1005.2 |
| 20260504214429 | 24 | 184 | 9.7 | 19.3 | 0.00 | 0.00 | 0.00 | 42 | 1005.1 |
| 20260504213926 | 24 | 186 | 11.3 | 16.1 | 0.00 | 0.00 | 0.00 | 42 | 1005.5 |
| 20260504213422 | 25 | 194 | 11.3 | 17.7 | 0.00 | 0.00 | 0.00 | 41 | 1005.2 |
| 20260504212920 | 25 | 191 | 11.3 | 17.7 | 0.00 | 0.00 | 0.00 | 42 | 1005.4 |
| 20260504212415 | 25 | 193 | 14.5 | 19.3 | 0.00 | 0.00 | 0.00 | 41 | 1005.6 |
| 20260504211914 | 25 | 199 | 12.9 | 17.7 | 0.00 | 0.00 | 0.00 | 41 | 1005.6 |
| 20260504211409 | 25 | 180 | 9.7 | 19.3 | 0.00 | 0.00 | 0.00 | 44 | 1005.7 |
| 20260504210907 | 25 | 194 | 11.3 | 16.1 | 0.00 | 0.00 | 0.00 | 43 | 1005.6 |
| 20260504210404 | 24 | 187 | 11.3 | 17.7 | 0.00 | 0.00 | 0.00 | 43 | 1005.7 |
| 20260504205901 | 25 | 202 | 12.9 | 16.1 | 0.00 | 0.00 | 0.00 | 42 | 1005.5 |
| 20260504205359 | 25 | 197 | 16.1 | 17.7 | 0.00 | 0.00 | 0.00 | 44 | 1005.9 |
| 20260504204857 | 25 | 199 | 14.5 | 19.3 | 0.00 | 0.00 | 0.00 | 42 | 1005.6 |
| 20260504204355 | 25 | 187 | 9.7 | 16.1 | 0.00 | 0.00 | 0.00 | 42 | 1005.9 |
| 20260504203854 | 25 | 189 | 17.7 | 17.7 | 0.00 | 0.00 | 0.00 | 44 | 1005.8 |
| 20260504203350 | 25 | 173 | 9.7 | 12.9 | 0.00 | 0.00 | 0.00 | 45 | 1005.6 |
| 20260504202847 | 26 | 177 | 6.4 | 9.7 | 0.00 | 0.00 | 0.00 | 47 | 1005.7 |
| 20260504202344 | 25 | 178 | 8.0 | 9.7 | 0.00 | 0.00 | 0.00 | 47 | 1005.9 |
| 20260504201840 | 25 | 180 | 8.0 | 11.3 | 0.00 | 0.00 | 0.00 | 43 | 1005.9 |
| 20260504201337 | 25 | 187 | 8.0 | 9.7 | 0.00 | 0.00 | 0.00 | 45 | 1006.3 |
| 20260504200834 | 23 | 163 | 6.4 | 11.3 | 0.00 | 0.00 | 0.00 | 46 | 1006.2 |
| 20260504200331 | 23 | 180 | 4.8 | 6.4 | 0.00 | 0.00 | 0.00 | 55 | 1006.4 |
| 20260504195828 | 23 | 180 | 6.4 | 8.0 | 0.00 | 0.00 | 0.00 | 50 | 1006.3 |
| 20260504195323 | 23 | 180 | 6.4 | 8.0 | 0.00 | 0.00 | 0.00 | 48 | 1006.7 |
| 20260504194821 | 24 | 190 | 6.4 | 14.5 | 0.00 | 0.00 | 0.00 | 46 | 1006.6 |
| 20260504194316 | 23 | 153 | 9.7 | 17.7 | 0.00 | 0.00 | 0.00 | 46 | 1006.7 |
| 20260504193812 | 23 | 196 | 11.3 | 16.1 | 0.00 | 0.00 | 0.00 | 47 | 1006.8 |
| 20260504193310 | 23 | 181 | 9.7 | 9.7 | 0.00 | 0.00 | 0.00 | 50 | 1006.9 |
| 20260504192809 | 23 | 186 | 9.7 | 14.5 | 0.00 | 0.00 | 0.00 | 50 | 1007.0 |
| 20260504192306 | 23 | 190 | 8.0 | 12.9 | 0.00 | 0.00 | 0.00 | 51 | 1007.0 |
| 20260504191805 | 23 | 183 | 9.7 | 14.5 | 0.00 | 0.00 | 0.00 | 51 | 1006.7 |
| 20260504191301 | 23 | 189 | 9.7 | 9.7 | 0.00 | 0.00 | 0.00 | 50 | 1007.1 |
| 20260504190757 | 23 | 201 | 9.7 | 16.1 | 0.00 | 0.00 | 0.00 | 48 | 1007.0 |
| 20260504190253 | 23 | 154 | 9.7 | 9.7 | 0.00 | 0.00 | 0.00 | 50 | 1007.0 |
| 20260504185750 | 23 | 180 | 8.0 | 12.9 | 0.00 | 0.00 | 0.00 | 50 | 1007.4 |
| 20260504185247 | 23 | 181 | 8.0 | 9.7 | 0.00 | 0.00 | 0.00 | 53 | 1007.1 |
| 20260504184743 | 22 | 174 | 8.0 | 11.3 | 0.00 | 0.00 | 0.00 | 56 | 1007.5 |
| 20260504184239 | 22 | 171 | 9.7 | 11.3 | 0.00 | 0.00 | 0.00 | 54 | 1007.4 |
| 20260504183735 | 21 | 160 | 8.0 | 12.9 | 0.00 | 0.00 | 0.00 | 56 | 1007.4 |
| 20260504183232 | 21 | 189 | 8.0 | 11.3 | 0.00 | 0.00 | 0.00 | 55 | 1007.4 |
| 20260504182730 | 21 | 182 | 4.8 | 8.0 | 0.00 | 0.00 | 0.00 | 58 | 1007.6 |
| 20260504182227 | 21 | 184 | 6.4 | 11.3 | 0.00 | 0.00 | 0.00 | 55 | 1007.4 |
| 20260504181725 | 21 | 193 | 9.7 | 9.7 | 0.00 | 0.00 | 0.00 | 57 | 1007.3 |
| 20260504181222 | 21 | 161 | 8.0 | 9.7 | 0.00 | 0.00 | 0.00 | 58 | 1007.3 |
| 20260504180721 | 21 | 172 | 8.0 | 12.9 | 0.00 | 0.00 | 0.00 | 55 | 1007.4 |
| 20260504180219 | 21 | 156 | 8.0 | 11.3 | 0.00 | 0.00 | 0.00 | 58 | 1007.3 |
| 20260504175716 | 21 | 197 | 9.7 | 9.7 | 0.00 | 0.00 | 0.00 | 60 | 1007.3 |
| 20260504175213 | 20 | 184 | 8.0 | 14.5 | 0.00 | 0.00 | 0.00 | 56 | 1007.2 |
| 20260504174711 | 20 | 185 | 12.9 | 16.1 | 0.00 | 0.00 | 0.00 | 56 | 1007.5 |
| 20260504174209 | 20 | 194 | 8.0 | 12.9 | 0.00 | 0.00 | 0.00 | 58 | 1007.5 |
| 20260504173705 | 20 | 185 | 11.3 | 17.7 | 0.00 | 0.00 | 0.00 | 57 | 1007.1 |
| 20260504173202 | 20 | 200 | 16.1 | 19.3 | 0.00 | 0.00 | 0.00 | 60 | 1007.4 |
| 20260504172658 | 20 | 190 | 14.5 | 16.1 | 0.00 | 0.00 | 0.00 | 58 | 1007.5 |
| 20260504172155 | 20 | 180 | 9.7 | 11.3 | 0.00 | 0.00 | 0.00 | 62 | 1007.4 |
| 20260504171651 | 20 | 186 | 11.3 | 12.9 | 0.00 | 0.00 | 0.00 | 61 | 1007.4 |
| 20260504171149 | 19 | 186 | 9.7 | 11.3 | 0.00 | 0.00 | 0.00 | 61 | 1007.3 |
| 20260504170645 | 19 | 166 | 6.4 | 11.3 | 0.00 | 0.00 | 0.00 | 59 | 1007.6 |
| 20260504170143 | 20 | 174 | 11.3 | 14.5 | 0.00 | 0.00 | 0.00 | 59 | 1007.4 |
| 20260504151028 | 17 | 173 | 8.0 | 11.3 | 0.00 | 0.00 | 0.00 | 63 | 1007.9 |
| 20260504150525 | 17 | 170 | 8.0 | 11.3 | 0.00 | 0.00 | 0.00 | 64 | 1007.9 |
| 20260504140950 | 16 | 162 | 9.7 | 12.9 | 0.00 | 0.00 | 0.00 | 65 | 1007.7 |
| 20260504140447 | 16 | 149 | 11.3 | 11.3 | 0.00 | 0.00 | 0.00 | 65 | 1007.5 |
| 20260504130411 | 12 | 169 | 11.3 | 11.3 | 0.00 | 0.00 | 0.00 | 70 | 1008.2 |
| 20260504110259 | 11 | 181 | 11.3 | 14.5 | 0.00 | 0.00 | 0.00 | 66 | 1008.4 |